Location: Allonne
(49.4086°N, 2.1143°E)
Time: 21:18:06
(UTC+00:00)

BlueWalker 3 - Pass Details

Date: 10 June 2023
Orbit: 492 x 508 km, 53.2° (Epoch: 22 September)

Event Time Altitude Azimuth Distance (km) Brightness Sun altitude
Rises 20:21:57 0° 289° (WNW) 2,577 7.0 -4.0°
Reaches altitude 10° 20:24:10 10° 294° (WNW) 1,696 6.1 -4.2°
Maximum altitude 20:27:56 56° 13° (NNE) 599 2.6 -4.7°
Drops below altitude 10° 20:31:44 10° 93° (E) 1,704 4.2 -5.1°
Enters shadow 20:33:44 - 97° (E) 2,502 5.0 -5.3°
